Location: Poughquag
(41.6090°N, 73.6820°W)
Time: 15:35:07
(UTC-04:00)

CUBESAT XI-V - Pass Details

Date: 19 April 2024
Orbit: 657 x 681 km, 98.2° (Epoch: 19 May)

Event Time Altitude Azimuth Distance (km) Brightness Sun altitude
Exits shadow 04:10:18 13° 301° (WNW) 1,931 ? -20.4°
Drops below altitude 10° 04:11:04 10° 310° (NW) 2,113 ? -20.3°
Sets 04:14:03 0° 330° (NNW) 3,039 ? -19.8°
